Temperature
12 11 10 11 12 12 13 13 13 13 13 12 12 12 13 13 13 13 13 13 12 12 11 11 11 11 11 11 11 11 11 11 11 11 11 11 11 11 10 11 11 11 11 11
11 10 11 12 12 13 13 12 12 13 13 12 12 12 13 13 13 13 13 13 13 12 11 11 11 10 10 10 11 10 10 10 10 10 10 10 10 10 10 10 10 10 10 10
11 11 11 12 12 12 12 12 11 11 11 12 12 12 13 13 13 13 13 13 13 12 11 11 10 10 10 10 10 10 10 10 10 10 10 10 10 10 10 10 10 10 10 10
11 11 11 11 11 11 11 11 11 11 10 10 12 9 12 12 12 12 13 12 12 12 11 11 10 10 10 10 10 10 10 10 10 9 9 10 9 9 9 9 9 9 9 9
10 10 10 10 10 11 10 11 11 11 10 10 11 10 10 13 12 12 12 12 12 12 11 11 10 10 10 10 10 10 9 9 9 9 9 9 9 9 9 9 9 9 8 8
10 10 10 10 10 11 10 11 11 10 9 9 11 10 10 12 12 12 12 12 12 12 11 11 10 10 10 9 9 9 9 9 9 9 9 8 8 8 8 8 8 8 8 8
10 10 10 10 10 10 10 9 9 9 9 9 11 11 10 13 13 12 12 12 12 11 11 10 10 10 9 9 9 9 9 9 9 8 8 8 8 8 8 8 7 7 7 7
9 9 10 10 10 9 10 10 8 8 9 10 11 10 11 13 13 13 12 12 12 11 11 10 10 9 9 9 9 8 8 8 8 8 8 8 7 7 7 7 7 7 7 7
9 9 10 10 10 9 10 9 10 8 9 9 10 12 12 12 12 12 12 12 11 11 10 10 10 9 9 9 8 8 8 8 8 8 8 7 7 7 7 7 7 7 7 7
9 8 9 9 9 9 9 9 8 8 8 9 11 12 11 11 11 11 11 11 11 11 10 10 9 9 9 8 8 8 8 8 8 7 7 7 7 7 6 6 6 6 6 6
9 8 8 9 8 9 8 9 9 8 8 8 8 10 12 11 11 11 11 11 11 10 10 9 9 9 9 8 8 8 7 7 7 7 7 7 7 6 6 6 6 6 6 6
9 8 7 9 9 9 9 9 9 7 8 8 7 8 12 11 11 11 11 11 11 10 10 9 9 8 8 8 8 7 7 7 7 7 7 6 6 6 6 6 6 6 6 6
8 7 7 8 8 8 8 9 9 8 7 6 7 8 11 11 11 11 11 11 10 10 9 9 8 8 8 8 7 7 7 7 7 7 6 6 6 6 6 6 6 6 6 6
8 7 7 7 8 8 7 8 8 7 5 6 7 8 10 10 10 10 11 10 10 10 9 9 8 8 8 7 7 7 7 7 6 6 6 6 6 6 6 6 5 5 5 5
7 6 7 7 8 8 8 7 7 7 6 6 7 8 9 9 9 10 10 10 10 9 9 8 8 8 7 7 7 7 7 6 6 6 6 6 6 5 5 5 5 5 5 5
7 6 6 6 7 7 7 7 7 7 7 7 7 8 9 10 10 10 9 9 9 9 8 8 8 7 7 7 7 7 6 6 6 6 6 5 5 5 5 5 5 5 5 5
6 6 5 5 7 6 5 7 7 7 7 7 7 8 9 9 9 9 9 9 8 8 8 7 7 7 7 6 6 6 6 6 6 6 5 5 5 5 5 5 5 4 4 4
6 6 5 5 5 5 8 9 9 8 8 8 8 8 8 8 9 9 8 8 8 7 7 7 7 6 6 6 6 6 6 6 5 5 5 5 5 5 4 4 4 4 4 4
6 5 5 5 5 6 8 8 8 7 7 8 8 8 9 9 8 8 8 8 7 7 7 6 6 6 6 6 6 5 5 5 5 5 5 5 4 4 4 4 4 4 4 4
4 5 4 4 5 5 8 8 8 7 6 8 8 8 8 7 5 6 8 7 7 6 6 6 6 6 6 5 5 5 5 5 5 5 5 4 4 4 4 4 4 3 3 3
3 3 3 3 4 5 8 7 7 6 7 8 8 8 8 6 6 7 7 7 6 6 6 6 5 5 5 5 5 5 5 5 5 5 4 4 4 4 3 3 3 3 3 3
4 3 3 4 4 5 7 6 6 7 8 8 8 7 7 7 6 6 6 6 6 5 5 5 5 5 5 5 5 5 5 5 4 4 4 4 4 3 3 3 3 3 2 2
5 5 5 5 6 8 8 8 8 8 7 7 7 6 6 6 6 5 5 5 5 5 5 5 5 5 5 5 4 4 5 5 4 4 4 4 4 3 3 3 3 2 2 2
6 7 6 5 6 8 8 8 8 7 7 7 6 6 6 5 5 5 5 4 4 4 4 4 4 4 4 4 4 4 4 4 4 4 4 4 3 3 3 2 2 2 2 2
6 5 4 5 6 7 8 7 7 7 6 6 6 5 5 5 4 4 4 4 4 4 4 3 3 4 4 4 4 4 4 4 3 3 3 3 3 3 3 2 2 2 2 2
5 5 4 5 6 6 6 6 6 6 5 5 5 5 4 4 4 3 3 3 3 3 3 3 3 3 3 3 3 3 3 3 3 3 3 3 3 2 2 2 2 2 1 1
Wind_Speed
0 2 3 3 4 4 3 2 1 1 2 2 5 6 6 5 6 6 6 5 4 4 3 4 4 4 3 2 1 1 1 2 2 2 2 2 2 3 2 3 4 5 5 5
2 4 4 4 4 4 3 2 2 2 2 3 5 8 7 7 7 6 5 5 5 4 4 4 4 4 3 2 1 1 0 1 2 2 2 1 2 2 2 2 3 5 5 5
4 3 3 3 3 4 3 2 3 4 6 5 5 6 6 4 5 5 4 3 3 4 5 5 4 4 3 2 1 1 0 0 1 1 1 2 2 2 2 2 2 4 5 5
3 3 3 3 4 5 2 5 4 4 4 3 2 4 4 6 7 7 6 5 4 4 3 4 4 3 3 3 2 1 1 1 1 0 1 2 2 3 3 2 2 3 4 4
2 3 3 3 4 5 2 4 4 5 4 4 4 4 6 5 6 7 7 6 5 5 5 4 4 3 3 3 2 1 1 2 1 1 1 2 3 3 3 2 3 3 3 3
2 1 2 3 3 3 4 5 5 4 2 4 5 5 5 3 5 5 5 5 5 5 4 4 3 3 3 3 3 2 2 2 2 2 2 2 3 4 4 4 3 3 2 2
0 3 2 1 3 2 3 3 2 1 3 5 3 4 6 2 2 4 4 4 4 4 4 3 3 3 3 3 3 3 3 3 3 2 3 3 4 4 4 4 3 3 2 3
2 1 3 1 2 3 3 2 1 2 3 3 2 5 4 3 5 5 4 3 3 2 2 3 3 3 3 4 4 4 4 4 3 3 3 3 3 3 3 3 3 3 3 3
3 1 2 1 1 3 3 1 2 2 5 4 6 5 2 5 6 5 4 3 2 2 2 2 2 2 3 3 3 4 4 4 4 3 4 3 3 3 4 3 3 2 3 3
4 3 2 2 2 4 3 3 1 1 3 5 6 4 3 5 5 4 4 3 2 2 2 1 2 2 3 3 3 3 4 4 4 4 4 3 3 4 3 3 3 3 3 2
3 3 2 2 5 4 4 3 3 3 4 3 5 4 2 4 4 3 2 2 1 1 1 1 2 2 2 3 3 3 4 4 4 4 4 3 4 3 3 3 3 3 3 3
1 2 4 4 1 1 2 4 4 3 4 4 4 6 2 5 4 3 2 1 1 1 1 1 2 2 2 3 3 4 4 4 4 4 4 4 4 3 3 4 3 3 3 3
2 3 4 2 1 1 3 5 6 4 3 4 5 6 2 4 3 1 1 2 1 1 2 2 2 2 3 3 4 4 4 4 4 4 4 4 4 4 4 4 3 3 3 3
2 4 6 6 3 2 6 7 8 7 5 7 10 11 8 4 3 3 3 3 3 3 3 3 3 3 3 4 4 4 4 4 4 4 5 5 5 5 5 4 4 4 4 3
3 5 8 12 12 11 13 12 11 14 12 10 11 12 12 9 7 6 5 5 5 5 4 4 4 4 4 4 4 4 4 4 4 5 5 6 5 5 4 4 4 4 4 4
4 5 7 10 11 12 15 16 16 15 16 18 18 19 12 7 5 5 6 5 5 5 5 4 4 4 5 5 5 5 5 5 4 5 6 6 5 5 5 5 5 4 4 4
4 4 4 6 6 8 11 12 14 10 10 10 14 12 7 6 6 5 6 6 6 6 5 5 5 5 5 5 5 5 5 4 5 6 6 6 6 6 6 5 5 5 5 4
6 5 4 5 6 9 7 1 3 7 10 11 10 8 6 5 6 6 5 4 5 5 5 5 5 5 5 5 5 5 4 5 5 6 6 6 6 6 5 5 6 6 5 5
8 6 4 4 6 9 6 3 4 4 6 7 8 7 5 4 5 5 2 2 4 5 5 5 5 5 5 5 5 4 5 5 5 6 6 6 6 6 6 6 7 6 5 5
3 5 5 5 5 7 3 3 3 2 5 2 2 3 3 2 3 4 2 3 4 5 4 5 5 5 5 5 4 5 6 6 7 7 6 6 6 6 7 7 6 5 5 5
4 5 9 9 8 9 4 5 5 2 3 1 0 2 3 4 5 5 6 5 5 6 6 6 6 5 6 5 4 6 6 7 7 6 5 6 6 6 6 6 5 5 5 5
9 7 8 7 8 10 4 6 5 4 2 2 3 3 4 6 7 7 7 7 7 7 7 6 6 6 5 5 5 7 8 7 5 5 6 6 6 6 5 5 5 5 5 5
9 9 6 9 10 5 5 6 5 2 4 5 4 5 6 7 8 8 8 7 7 7 7 6 6 7 6 5 6 8 8 6 5 5 6 6 5 5 5 6 6 5 5 5
7 6 7 8 9 9 8 7 5 5 5 6 7 7 7 8 9 9 8 7 7 7 7 6 6 7 7 6 6 7 6 5 5 6 6 5 5 6 5 5 6 6 6 6
7 4 7 11 11 10 9 6 6 6 6 7 8 7 8 9 9 9 8 8 7 7 7 6 7 8 8 7 7 6 6 5 6 6 6 5 6 6 6 6 6 7 7 8
10 11 12 12 8 8 7 6 7 7 8 8 8 8 8 8 10 9 8 8 7 7 7 7 7 8 8 7 8 7 5 5 6 6 6 5 5 5 5 5 4 7 8 9
Wind_Direction
337 53 45 18 348 330 323 322 304 57 83 285 258 252 243 214 210 219 213 201 188 181 164 141 137 136 132 132 136 109 51 27 18 7 347 334 337 327 327 340 337 329 324 322
73 54 20 344 333 322 322 312 330 32 354 289 273 270 249 212 209 215 211 202 186 169 156 143 146 145 151 163 170 180 137 34 19 14 346 306 305 295 292 306 321 321 322 327
52 41 351 329 343 343 339 11 12 340 315 258 268 275 222 195 188 197 199 194 171 173 175 168 165 164 168 175 170 214 219 5 347 353 335 326 314 302 306 321 319 324 329 332
59 39 355 347 4 351 353 24 355 315 314 285 244 285 251 198 195 198 193 190 192 185 175 170 167 168 175 171 152 210 225 223 266 319 302 304 301 295 299 307 304 312 323 328
54 30 354 358 4 346 342 328 295 282 289 293 236 237 272 197 199 200 189 184 182 179 173 170 167 167 164 155 158 196 232 229 218 232 269 289 292 291 305 318 314 312 318 323
111 73 4 357 345 316 302 288 258 242 264 270 223 211 268 218 200 188 177 172 173 171 163 158 150 146 157 158 165 195 226 234 219 221 251 262 275 288 302 306 301 306 309 315
125 157 128 311 298 257 297 326 345 309 234 248 191 217 249 210 114 138 149 158 156 152 156 163 166 176 187 182 189 204 226 234 224 231 247 250 256 263 269 284 287 292 298 302
316 247 143 166 330 322 290 316 348 286 289 310 253 236 242 133 112 110 114 118 123 141 168 173 185 198 207 205 202 209 227 233 226 234 251 249 252 252 257 266 278 278 276 276
337 288 116 112 319 305 296 286 21 310 289 276 253 224 187 139 135 141 146 145 162 185 194 187 195 205 205 210 213 215 225 235 233 231 246 247 250 256 259 264 268 273 280 284
329 294 227 151 219 235 283 320 292 233 282 286 280 250 199 163 158 154 159 163 182 177 178 201 219 210 202 211 221 219 221 229 232 229 236 243 242 249 254 258 265 271 279 288
300 282 263 211 218 205 192 229 238 260 262 262 291 289 57 115 124 132 123 120 126 128 162 222 232 217 216 214 219 226 228 229 233 230 233 240 244 244 247 250 253 260 271 278
336 298 266 241 145 37 248 240 215 230 260 241 264 274 92 106 107 101 96 112 111 138 183 219 222 218 228 230 231 232 230 230 233 228 226 232 237 238 240 243 248 250 260 265
336 265 285 241 178 177 239 238 241 258 285 252 246 259 149 134 135 100 359 314 297 245 227 236 234 231 238 238 238 235 231 230 232 226 225 232 231 231 237 241 239 240 249 256
292 256 236 250 269 260 248 238 228 224 225 243 237 255 260 261 294 307 295 285 284 279 260 246 245 244 244 241 238 237 235 230 230 227 225 229 230 228 231 236 235 235 238 240
228 257 260 269 277 275 265 256 237 229 227 238 254 262 273 291 299 301 292 284 284 288 282 267 259 258 254 248 243 238 235 231 230 228 230 232 232 228 224 228 232 235 236 239
223 264 283 274 259 259 264 256 245 242 239 245 259 270 274 279 294 301 302 299 292 292 289 284 279 277 269 259 253 244 237 232 226 231 233 230 228 226 223 226 227 230 234 238
219 243 275 274 285 293 267 245 230 225 223 228 246 255 278 291 293 297 298 294 293 297 297 290 282 275 271 266 258 248 241 235 228 234 235 230 226 227 226 223 222 226 229 232
243 240 258 282 301 256 249 146 190 228 243 233 244 265 281 288 296 289 282 283 299 310 306 294 284 278 272 268 266 254 241 233 233 235 236 231 226 227 225 221 225 229 226 226
229 229 245 258 269 277 261 203 183 216 262 237 238 256 276 309 314 291 279 308 300 295 295 287 278 276 272 267 258 251 247 237 234 237 237 232 226 226 224 223 226 229 226 227
237 229 236 241 252 255 266 129 101 97 270 226 206 246 279 314 295 274 323 330 306 298 294 289 284 279 275 268 252 248 249 243 241 240 239 233 226 226 225 226 227 227 225 228
180 208 223 237 250 263 263 144 127 197 248 63 301 271 265 246 251 286 312 305 296 290 287 284 279 274 270 268 256 253 254 250 248 245 240 232 226 227 225 222 222 224 221 221
188 195 205 210 230 251 183 143 197 241 320 321 299 286 276 272 284 294 296 293 294 290 283 277 275 271 267 259 251 257 256 256 253 243 237 232 228 227 222 217 221 217 212 219
207 205 207 209 226 252 186 215 236 264 285 287 290 288 280 280 282 287 288 286 286 283 280 273 269 272 269 258 246 256 260 254 247 240 236 233 229 227 220 215 217 216 213 219
240 229 248 261 260 266 258 256 262 265 271 281 285 282 277 276 280 283 283 283 283 282 279 275 273 273 274 265 256 254 259 248 238 240 239 231 226 229 224 219 215 215 217 221
254 241 252 261 269 279 274 272 281 287 283 285 282 276 273 275 278 276 276 275 275 277 275 271 267 269 272 270 265 259 254 244 241 242 240 234 228 227 225 222 220 219 221 218
237 244 248 258 261 269 281 292 295 288 282 280 280 281 274 268 272 274 273 270 270 272 273 274 269 268 271 272 269 263 250 240 240 244 238 232 230 227 224 224 234 230 225 228
Height
1497 1500 1504 1502 1500 1498 1497 1497 1498 1497 1496 1498 1497 1495 1493 1492 1493 1493 1494 1496 1497 1498 1499 1499 1499 1499 1500 1500 1500 1501 1501 1501 1501 1501 1500 1500 1500 1500 1500 1500 1500 1500 1499 1499
1501 1504 1504 1502 1500 1498 1497 1499 1500 1498 1497 1497 1497 1494 1489 1489 1490 1491 1492 1493 1495 1496 1497 1497 1497 1498 1498 1498 1499 1499 1499 1499 1499 1499 1498 1498 1498 1498 1498 1497 1497 1497 1496 1496
1504 1507 1504 1503 1502 1501 1500 1502 1503 1504 1500 1496 1497 1494 1487 1485 1487 1489 1490 1491 1493 1494 1495 1496 1496 1496 1497 1497 1497 1497 1497 1497 1497 1497 1496 1496 1495 1495 1495 1494 1494 1493 1493 1492
1506 1506 1506 1505 1504 1503 1504 1503 1504 1504 1506 1504 1499 1507 1489 1485 1485 1486 1488 1489 1491 1492 1493 1494 1495 1495 1495 1495 1496 1496 1495 1495 1495 1494 1494 1493 1492 1492 1492 1491 1491 1490 1490 1489
1508 1508 1508 1507 1508 1506 1506 1504 1504 1504 1506 1506 1499 1505 1495 1482 1484 1484 1485 1487 1489 1490 1491 1492 1493 1493 1493 1493 1493 1493 1493 1493 1492 1492 1491 1491 1490 1490 1489 1488 1488 1487 1487 1486
1509 1509 1510 1509 1509 1507 1506 1504 1502 1503 1508 1511 1497 1500 1495 1483 1480 1480 1482 1484 1486 1488 1489 1490 1491 1491 1491 1491 1491 1491 1491 1490 1490 1489 1489 1488 1488 1487 1486 1486 1485 1484 1484 1483
1510 1510 1510 1511 1510 1508 1508 1510 1512 1512 1512 1505 1491 1495 1491 1477 1475 1477 1480 1482 1484 1486 1487 1488 1488 1488 1488 1488 1488 1488 1488 1488 1487 1487 1486 1486 1485 1484 1484 1483 1482 1481 1481 1480
1514 1514 1510 1511 1511 1511 1509 1510 1518 1520 1512 1503 1494 1495 1484 1475 1475 1477 1479 1482 1483 1485 1486 1486 1486 1486 1486 1486 1485 1485 1485 1485 1484 1484 1483 1483 1482 1482 1481 1480 1479 1479 1478 1477
1515 1515 1510 1510 1511 1511 1509 1510 1510 1516 1511 1510 1497 1482 1478 1474 1476 1477 1479 1481 1482 1483 1484 1484 1484 1484 1484 1483 1483 1482 1482 1482 1481 1481 1480 1480 1479 1478 1478 1477 1476 1476 1475 1474
1515 1517 1511 1510 1512 1512 1512 1510 1513 1516 1517 1510 1493 1483 1483 1478 1477 1478 1479 1480 1481 1482 1482 1482 1482 1482 1481 1481 1481 1480 1479 1479 1478 1477 1477 1476 1476 1475 1474 1474 1473 1472 1472 1471
1515 1518 1514 1511 1510 1509 1512 1512 1511 1512 1510 1514 1507 1492 1475 1475 1475 1477 1478 1479 1479 1480 1480 1480 1480 1479 1479 1479 1478 1477 1476 1476 1475 1474 1474 1473 1472 1472 1471 1470 1469 1469 1468 1468
1515 1517 1516 1508 1505 1505 1506 1507 1509 1516 1511 1507 1509 1497 1473 1473 1474 1476 1477 1478 1478 1478 1478 1477 1477 1477 1476 1475 1475 1474 1473 1472 1471 1471 1470 1469 1469 1468 1467 1466 1466 1465 1465 1464
1516 1517 1518 1509 1511 1509 1508 1505 1505 1507 1510 1511 1509 1494 1474 1474 1474 1475 1476 1476 1476 1476 1475 1475 1474 1473 1473 1472 1471 1470 1470 1469 1468 1467 1467 1466 1465 1464 1464 1463 1463 1462 1461 1461
1517 1516 1517 1511 1503 1504 1505 1503 1503 1507 1513 1507 1497 1486 1476 1474 1474 1474 1474 1474 1473 1473 1472 1472 1471 1470 1469 1468 1468 1467 1466 1465 1464 1463 1463 1462 1461 1461 1460 1459 1459 1458 1458 1457
1516 1515 1509 1504 1500 1499 1498 1498 1497 1499 1499 1499 1486 1480 1474 1473 1473 1472 1472 1471 1470 1470 1469 1469 1468 1467 1466 1465 1464 1463 1462 1461 1460 1459 1458 1458 1457 1457 1456 1455 1455 1455 1454 1454
1512 1512 1508 1504 1496 1495 1493 1489 1488 1488 1487 1485 1482 1477 1471 1471 1470 1469 1469 1468 1467 1467 1466 1465 1464 1463 1462 1461 1459 1458 1457 1456 1455 1454 1454 1453 1453 1452 1452 1452 1451 1451 1450 1450
1509 1509 1508 1503 1493 1493 1490 1476 1477 1478 1475 1476 1477 1471 1468 1468 1468 1467 1466 1465 1465 1464 1463 1461 1460 1459 1457 1456 1455 1454 1453 1452 1451 1450 1449 1448 1448 1448 1448 1447 1447 1446 1446 1446
1505 1506 1507 1504 1499 1497 1474 1466 1466 1468 1468 1467 1466 1465 1465 1465 1465 1464 1463 1462 1461 1460 1459 1458 1456 1454 1453 1452 1450 1449 1448 1447 1446 1445 1444 1444 1443 1443 1443 1443 1442 1442 1442 1441
1501 1504 1505 1503 1498 1484 1468 1466 1466 1468 1466 1461 1462 1462 1462 1462 1462 1460 1460 1459 1459 1457 1456 1454 1452 1451 1449 1447 1445 1444 1443 1442 1441 1440 1439 1439 1438 1438 1438 1438 1437 1437 1437 1437
1499 1500 1504 1500 1497 1488 1466 1465 1463 1466 1467 1459 1458 1459 1460 1461 1463 1460 1457 1456 1455 1454 1452 1450 1448 1446 1444 1442 1441 1439 1438 1437 1436 1435 1434 1434 1433 1433 1432 1432 1433 1433 1432 1432
1500 1501 1501 1498 1493 1478 1464 1463 1465 1471 1464 1458 1457 1457 1457 1458 1458 1456 1454 1453 1451 1449 1447 1445 1443 1441 1440 1438 1437 1435 1433 1432 1431 1430 1429 1428 1428 1427 1427 1427 1427 1427 1427 1427
1489 1492 1492 1490 1489 1478 1460 1462 1464 1461 1457 1456 1456 1455 1455 1454 1453 1451 1450 1448 1447 1444 1443 1441 1439 1436 1435 1434 1432 1429 1428 1427 1426 1425 1424 1423 1423 1422 1422 1422 1422 1422 1422 1422
1474 1474 1473 1473 1468 1458 1457 1456 1456 1455 1455 1454 1453 1452 1452 1450 1448 1447 1445 1443 1442 1440 1438 1436 1434 1432 1430 1429 1427 1425 1423 1422 1421 1420 1419 1418 1417 1417 1417 1417 1416 1417 1417 1416
1466 1464 1465 1463 1456 1453 1453 1452 1452 1452 1451 1450 1449 1448 1447 1445 1443 1442 1440 1438 1436 1434 1433 1431 1429 1426 1424 1423 1422 1420 1419 1417 1416 1414 1413 1413 1412 1412 1411 1411 1411 1411 1411 1411
1461 1461 1460 1457 1452 1451 1448 1448 1448 1447 1446 1445 1444 1443 1441 1439 1437 1436 1434 1432 1430 1429 1427 1425 1423 1421 1419 1418 1416 1415 1414 1412 1411 1409 1408 1408 1407 1406 1406 1406 1406 1406 1406 1407
1455 1456 1455 1450 1447 1447 1445 1444 1444 1442 1441 1440 1438 1436 1435 1434 1431 1430 1428 1426 1424 1423 1421 1419 1417 1415 1413 1412 1410 1409 1408 1407 1405 1403 1402 1402 1401 1401 1400 1400 1400 1400 1401 1401